Pardubice, Czech Republic

2:25 PM CET on February 21, 2017 (GMT +0100)
Pardubice

Weather History for LKPD - August, 2013

Change the Weather History Date:

Monday, August 19, 2013

  Actual Average Record
Temperature  
Mean Temperature 68 °F -  
Max Temperature 73 °F - - ()
Min Temperature 60 °F - - ()
Cooling Degree Days 2    
Growing Degree Days 18 (Base 50)    
Moisture  
Dew Point 61 °F    
Average Humidity 81    
Maximum Humidity 100    
Minimum Humidity 61    
Precipitation  
Precipitation 0.00 in - - ()
Sea Level Pressure  
Sea Level Pressure 30.02 in    
Wind  
Wind Speed 3 mph ()    
Max Wind Speed 9 mph    
Max Gust Speed -    
Visibility 5.7 miles    
Events Rain    
T = Trace of Precipitation, MM = Missing Value Source: Averaged Metar Reports

Daily Weather History Graph

Daily Weather History Graph

Search for Another Location

Airport or City:

Trip Planner

Search our weather history database for the weather conditions in past years. The results will help you decide how hot, cold, wet, or windy it might be!

Date:

Astronomy

Aug. 19, 2013 Rise Set
Actual Time 5:52 AM CEST 8:07 PM CEST
Civil Twilight 5:17 AM CEST 8:42 PM CEST
Nautical Twilight 4:32 AM CEST 9:27 PM CEST
Astronomical Twilight 3:41 AM CEST 10:17 PM CEST
Moon 6:47 PM CEST (8/19) 3:45 AM CEST (8/19)
Length of Visible Light 15h 25m
Length of Day
14h 15m
Waxing Gibbous, 96% of the Moon is Illuminated
Aug 19
Waxing Gibbous
Aug 21
Full
Aug 28
Last Quarter
Sep 5
New
Sep 12
First Quarter

Hourly Weather History & Observations

Time (CEST) Temp. Dew Point Humidity Pressure Visibility Wind Dir Wind Speed Gust Speed Precip Events Conditions
12:00 AM 71.6 °F 62.6 °F 73% 29.98 in - Variable 1.2 mph - N/A   Clear
1:00 AM 69.8 °F 62.6 °F 78% 30.01 in - West 6.9 mph - N/A   Clear
2:00 AM 69.8 °F 60.8 °F 73% 30.01 in - West 3.5 mph - N/A   Clear
3:00 AM 68.0 °F 60.8 °F 78% 30.01 in - West 4.6 mph - N/A   Clear
4:00 AM 66.2 °F 60.8 °F 83% 30.01 in - WSW 2.3 mph - N/A   Clear
5:00 AM 66.2 °F 60.8 °F 83% 30.01 in - West 3.5 mph - N/A   Clear
6:00 AM 64.4 °F 59.0 °F 83% 30.04 in - Calm Calm - N/A   Clear
7:00 AM 66.2 °F 60.8 °F 83% 30.04 in - Calm Calm - N/A   Clear
8:00 AM 66.2 °F 60.8 °F 83% 30.01 in 6.2 mi Calm Calm - N/A Rain Light Rain
9:00 AM 68.0 °F 60.8 °F 78% 30.04 in - Calm Calm - N/A   Clear
10:00 AM 69.8 °F 59.0 °F 68% 30.04 in - Variable 1.2 mph - N/A   Clear
11:00 AM 71.6 °F 59.0 °F 64% 30.04 in - SE 3.5 mph - N/A   Clear
12:00 PM 73.4 °F 59.0 °F 61% 30.04 in 6.2 mi Variable 1.2 mph - N/A Rain Light Rain
1:00 PM 71.6 °F 62.6 °F 73% 30.01 in 6.2 mi Variable 2.3 mph - N/A Rain Light Rain
2:00 PM 71.6 °F 62.6 °F 73% 30.01 in 6.2 mi NE 3.5 mph - N/A Rain Light Rain
3:00 PM 69.8 °F 60.8 °F 73% 29.98 in 6.2 mi East 8.1 mph - N/A Rain Light Rain
4:00 PM 68.0 °F 62.6 °F 83% 29.98 in 6.2 mi ESE 8.1 mph - N/A Rain Light Rain
5:00 PM 68.0 °F 60.8 °F 78% 30.01 in 6.2 mi West 6.9 mph - N/A Rain Light Rain
6:00 PM 64.4 °F 62.6 °F 94% 30.04 in 3.7 mi West 9.2 mph - N/A Rain Light Rain
7:00 PM 62.6 °F 62.6 °F 100% 30.04 in 5.0 mi SW 4.6 mph - N/A Rain Light Rain
8:00 PM 62.6 °F 60.8 °F 94% 30.04 in 5.0 mi Variable 2.3 mph - N/A Rain Light Rain
9:00 PM 62.6 °F 60.8 °F 94% 30.06 in 6.2 mi West 2.3 mph - N/A Rain Light Rain
10:00 PM 62.6 °F 60.8 °F 94% 30.04 in 5.0 mi Calm Calm - N/A Rain Light Rain
11:00 PM 60.8 °F 60.8 °F 100% 30.06 in 6.2 mi WSW 5.8 mph - N/A Rain Light Rain